This is the latest recevied weather packets stored in our database for station/object KT2UU-13. If no packets are shown the sender has not sent any weather packets the latest 10 day(s).
| Time | Temp. | Humidity | Pressure | Rain* | Wind** | Luminosity | Snow |
|---|---|---|---|---|---|---|---|
| 1777912590 | 21.11° C | 50% | 1018.4 hPa | 0 mm | - | - | - |
| 1777912281 | 21.11° C | 51% | 1018.3 hPa | 0 mm | - | - | - |
| 1777911977 | 20.56° C | 54% | 1018.2 hPa | 0 mm | - | - | - |
| 1777911673 | 20.56° C | 52% | 1018.4 hPa | 0 mm | - | - | - |
| 1777911370 | 20.56° C | 51% | 1018.4 hPa | 0 mm | - | - | - |
| 1777911067 | 20.56° C | 55% | 1018.1 hPa | 0 mm | - | - | - |
| 1777910764 | 20.56° C | 52% | 1018.4 hPa | 0 mm | - | - | - |
| 1777910460 | 20° C | 53% | 1018.4 hPa | 0 mm | - | - | - |
| 1777910157 | 20° C | 53% | 1018.5 hPa | 0 mm | - | - | - |
| 1777909855 | 19.44° C | 54% | 1018.3 hPa | 0 mm | - | - | - |
| 1777909551 | 19.44° C | 53% | 1018.6 hPa | 0 mm | - | - | - |
| 1777909249 | 19.44° C | 53% | 1018.6 hPa | 0 mm | - | - | - |
| 1777908947 | 19.44° C | 53% | 1018.4 hPa | 0 mm | - | - | - |
| 1777908645 | 19.44° C | 57% | 1018.4 hPa | 0 mm | - | - | - |
| 1777908341 | 18.89° C | 58% | 1018.5 hPa | 0 mm | - | - | - |
| 1777908038 | 18.89° C | 58% | 1018.4 hPa | 0 mm | - | - | - |
| 1777907733 | 18.33° C | 58% | 1018.5 hPa | 0 mm | - | - | - |
| 1777907433 | 18.33° C | 59% | 1018.7 hPa | 0 mm | - | - | - |
| 1777907131 | 17.78° C | 61% | 1018.6 hPa | 0 mm | - | - | - |
| 1777906829 | 17.78° C | 58% | 1018.9 hPa | 0 mm | - | - | - |
| 1777906526 | 18.33° C | 57% | 1018.8 hPa | 0 mm | - | - | - |
| 1777906221 | 17.78° C | 59% | 1019.1 hPa | 0 mm | - | - | - |
| 1777905918 | 17.22° C | 59% | 1018.9 hPa | 0 mm | - | - | - |
| 1777905615 | 17.22° C | 59% | 1018.8 hPa | 0 mm | - | - | - |
| 1777905312 | 17.22° C | 59% | 1019 hPa | 0 mm | - | - | - |
* Rain latest hour (hover to see other rain measurements)
** Current wind speed in m/s (hover to see current wind gust speed)